CZ-4 DEB, 26443

Orbit data source: Space-Track

CZ-4 DEB, 26443 is space debris in SSO originally from a launch on Thu, 14 Oct 1999 UTC launched from the Taiyaun Space Center, China (TSC). Debris objects in space refer to the collection of defunct objects orbiting the Earth. Examples of debris include non-operational satellites, rocket bodies, and fragments generated from explosions, collisions, or faulty payload assembly.

Loading next visibility...
Identifier
26443, 1999-057KQ
Orbit
SSO
Country
Flag of CNCN / PRC
Related business
Manufacturer
Unknown
Mission
Spacecraft
Bus & Motor
Unknown
Mass
Unknown
Launch date (UTC)
1999-10-14 (26 years ago)
Launch vehicle
Unknown
Launch site
Taiyaun Space Center, China (TSC)
Object type
Payload
Rocket body
Debris
Shape & HBR
Unknown shape, 0.1 m
Radar Cross Section
Small (<0.1 m²)

Expand to show TLE details & history
Last TLE update: 1 day ago

TLE from 1 day ago
0 CZ-4 DEB
1 26443U 99057KQ  26036.10431737  .00000909  00000-0  27078-3 0  9997
2 26443  98.6394  95.1938 0093572 131.2745 260.0874 14.43062302354491
Epoch: 2026-02-05T02:30Z
TLE epoch observation values (Epoch: 2026-02-05T02:30:13.020Z)
Latitude
29.98066°
Longitude
-82.62355°
Altitude
764.257 km
Speed
7.469 km/s
True Right ascension
06h 00m 46s
True Declination
29° 49' 56"
Sunlit
Object was in full shadow at epoch
Visualization orbit readout
Latitude
Unknown
Longitude
Unknown
Altitude
Unknown
Speed
Unknown
Apparent Right ascension
Unknown
Apparent Declination
Unknown
Sunlit
N/A
Visualization observer readout
Local Sidereal Time
16:09:00
Azimuth
Unknown
Elevation
Unknown
Doppler factor
Unknown
Orbital elements
Apogee altitude
812.18 km
Perigee altitude
678.865 km
Semi-major axis
7,123.66 km
Eccentricity
0.00936
Inclination
98.6394°
RAAN
95.1938°
Arg. of periapsis
131.2745°
True anomaly
259.03333°
Mean anomaly
260.0874°
Eccentric anomaly
259.56015°
Mean motion
3.60984 °/min
Orbital period
99.73 mins
BSTAR
0.00027078
Loading maneuver chart data...
Computing Atmospheric mass density...
Loading historical data...
Loading historical data...
Loading historical data...
Loading historical data...
Loading historical data...
Loading historical data...
Loading historical data...

Documentation

Showing up to 5 results
|